Wind_Speed
7 8 8 9 9 9 9 9 10 10 10 10 11 11 13 14 14 14 14 14 14 14 15 15 16 16 16 17 17 16 16 16 16 16 16 16 16 16 16 16 16 16 16
6 7 8 8 8 8 7 7 7 8 8 9 9 10 11 12 14 14 15 15 15 16 16 17 17 17 18 18 18 17 17 17 17 17 17 17 17 17 16 17 17 17 18
6 6 7 7 6 6 5 5 5 6 6 7 8 8 9 10 11 13 14 15 15 16 16 17 17 18 18 18 18 18 18 18 18 18 18 18 18 18 17 18 18 18 19
6 6 6 6 5 5 4 4 5 5 5 6 6 7 8 9 9 11 12 13 14 15 16 16 17 17 17 18 18 18 19 19 18 19 19 19 19 19 18 18 19 19 19
6 6 6 6 5 5 4 4 4 4 4 5 6 6 7 7 8 9 10 11 12 13 14 15 16 16 17 17 17 18 18 18 18 19 19 19 19 19 19 19 19 19 18
6 5 5 5 5 4 4 4 4 4 4 4 5 5 6 7 7 8 9 10 11 12 13 14 15 16 16 16 16 16 17 17 18 18 19 19 19 19 18 18 18 18 18
6 6 6 6 5 5 5 5 4 3 3 4 4 5 5 6 7 7 8 9 11 12 13 14 15 15 15 15 15 15 15 16 17 18 19 19 19 19 18 18 18 18 18
7 7 7 7 7 7 6 6 5 4 4 4 4 4 5 5 6 7 8 9 10 11 13 14 15 15 15 15 15 15 15 16 17 18 19 19 19 19 19 19 19 18 18
8 8 8 9 9 8 8 7 6 6 5 5 5 5 5 5 6 7 8 9 10 11 13 14 15 15 15 15 15 15 15 16 17 18 19 19 20 20 20 20 20 20 20
10 11 11 12 11 10 10 9 8 7 6 6 6 5 5 5 6 7 8 9 10 11 12 14 15 15 16 16 16 16 17 17 17 18 19 20 21 21 22 22 22 22 22
11 12 13 13 13 12 11 10 9 8 7 6 6 6 6 6 6 7 8 8 10 11 12 13 14 15 16 16 16 17 17 18 18 19 20 20 21 22 22 23 23 23 24
11 13 14 14 13 13 12 11 10 9 8 7 7 7 7 7 7 7 8 9 10 11 12 13 14 15 15 16 17 18 18 18 19 20 21 22 22 23 24 24 25 25 26
12 14 14 14 14 14 13 12 11 10 9 9 8 8 8 8 8 8 9 9 10 11 12 14 14 15 16 17 18 19 19 20 20 21 22 23 24 25 26 27 28 29 29
14 15 15 15 15 14 14 13 13 12 11 11 11 11 10 10 10 10 10 11 12 13 14 15 16 17 18 19 20 21 22 22 23 24 25 25 26 27 28 29 31 32 33
14 15 16 16 17 16 16 15 14 13 13 13 13 13 13 13 13 13 13 14 15 16 17 18 19 20 21 22 23 24 25 26 27 28 28 29 29 30 31 32 34 35 36
14 15 17 18 19 19 18 17 17 16 15 15 15 15 15 15 16 16 17 17 18 19 20 21 22 24 25 26 26 27 28 29 30 32 33 33 34 35 35 36 37 38 39
15 15 17 19 20 21 21 20 20 19 19 19 19 18 18 19 19 20 20 21 22 23 24 25 26 27 28 29 30 30 31 32 34 35 36 37 38 39 39 40 41 42 43
16 17 20 21 22 23 23 23 22 22 23 24 23 22 22 22 23 23 24 24 26 27 28 29 29 29 30 31 32 34 34 35 36 38 39 40 41 42 42 43 44 44 45
18 20 22 23 24 25 25 25 24 25 26 26 26 25 25 25 25 26 27 28 29 30 30 31 31 31 31 33 34 35 37 38 39 40 41 42 43 44 45 46 47 47 48
19 21 22 24 26 27 28 29 29 29 28 29 28 27 28 27 28 28 29 30 30 30 30 31 31 32 32 34 35 37 39 40 40 41 43 45 46 47 48 49 51 52 52
21 21 23 25 28 29 31 32 33 32 31 30 29 28 28 29 29 29 30 30 30 31 32 32 32 33 34 36 38 40 41 42 43 44 46 47 49 50 51 53 54 55 56
22 23 25 27 29 32 34 35 35 35 34 33 31 27 27 28 28 28 29 30 31 32 33 35 36 36 38 39 40 42 43 44 46 47 48 49 51 52 54 55 57 58 59
24 26 27 30 32 35 36 37 38 36 34 34 29 27 27 27 28 29 29 29 32 34 35 37 38 39 41 42 42 44 45 46 47 48 50 51 53 55 57 59 60 61 62
27 29 31 33 36 37 37 38 40 38 37 35 31 29 28 28 28 29 30 33 34 36 38 39 41 43 44 45 46 47 48 49 50 51 52 54 56 58 60 61 63 64 65
31 32 34 36 38 38 39 40 41 40 39 35 32 31 30 30 31 32 33 35 37 39 41 43 45 47 48 49 50 51 52 53 55 55 56 57 59 61 63 65 66 67 68
34 35 38 39 41 41 43 43 42 41 38 37 36 35 33 34 35 35 37 39 41 43 46 48 49 50 51 53 54 55 57 58 59 60 61 61 62 63 65 67 68 68 69
Wind_Direction
296 296 300 296 288 281 276 275 276 276 274 274 273 272 271 272 273 273 273 274 276 278 281 284 285 286 287 287 286 284 282 281 281 281 281 281 280 279 278 276 275 275 276
303 305 306 301 293 289 287 284 284 285 284 282 279 276 274 273 273 274 275 275 277 279 280 282 284 286 287 287 287 285 284 284 284 283 282 282 281 280 279 278 276 275 275
322 321 316 309 302 301 303 302 298 296 296 293 290 286 282 278 276 274 275 276 277 279 281 283 285 285 286 286 286 287 286 285 283 282 281 281 281 281 280 277 276 275 275
347 339 329 319 314 314 315 315 313 311 308 305 302 299 296 291 286 282 280 280 281 282 283 285 286 286 286 286 287 287 286 284 282 281 280 280 280 280 279 278 276 275 275
1 348 336 328 324 328 330 326 323 320 317 315 312 311 310 307 303 298 295 292 291 290 289 289 288 288 288 288 287 286 284 283 282 280 279 279 279 279 279 279 278 276 276
1 351 345 338 335 339 340 337 334 332 331 329 327 325 323 322 319 315 309 305 301 298 296 296 295 294 294 292 289 286 284 283 282 281 280 279 280 281 281 280 280 279 276
2 356 351 348 343 341 339 334 328 330 330 330 328 327 326 325 324 322 317 312 306 303 302 301 300 299 299 297 295 292 289 286 284 284 282 281 281 280 280 280 279 279 278
5 356 352 352 350 345 335 327 323 321 317 313 313 315 319 320 318 316 314 310 307 304 303 301 300 300 299 299 297 294 290 287 285 283 282 281 281 281 281 280 278 279 279
10 4 0 360 356 350 342 332 325 318 312 308 307 309 308 307 307 306 304 303 301 299 298 297 296 297 297 297 295 293 290 286 283 282 281 281 281 282 282 281 279 278 277
16 15 13 7 2 355 347 340 333 325 316 309 304 301 299 297 295 295 295 295 294 293 293 292 292 292 293 293 293 291 289 287 285 283 283 282 282 282 282 281 280 279 277
17 14 9 6 2 355 348 341 334 327 318 307 300 295 290 288 286 286 288 290 290 290 289 289 290 291 291 292 291 291 289 287 286 284 283 283 282 282 281 280 279 278 277
7 5 1 359 355 349 344 338 332 325 315 303 295 289 285 282 281 280 282 286 287 287 287 288 289 290 289 290 290 289 288 286 284 283 282 282 282 282 282 281 279 278 277
352 353 352 351 349 344 340 333 327 323 316 306 293 285 280 277 277 278 280 281 283 285 287 287 287 287 287 287 288 288 287 286 285 284 283 283 283 283 282 282 281 280 279
339 340 343 340 340 336 333 329 323 320 317 310 300 288 279 274 274 276 279 281 283 285 286 287 287 286 286 285 285 286 286 286 285 283 283 282 282 282 281 280 279 279 278
331 332 332 333 331 328 323 320 318 315 312 309 303 293 284 279 277 278 281 282 284 286 286 287 288 288 288 288 287 286 286 285 284 284 283 282 282 281 280 279 278 278 278
318 322 323 325 324 319 314 309 309 308 305 304 301 297 291 285 280 278 279 282 283 285 285 287 288 289 289 289 289 288 287 286 285 285 284 283 282 281 281 279 279 278 278
308 312 314 313 313 312 308 304 301 300 299 297 295 292 291 287 280 278 278 280 283 283 283 284 285 288 288 288 288 288 288 287 286 286 285 284 283 282 281 280 280 280 280
300 304 307 306 307 308 307 305 300 296 295 292 290 286 285 284 280 279 280 281 284 284 282 282 283 286 287 288 288 287 287 287 287 286 285 285 284 283 282 282 281 281 281
292 297 301 302 303 304 304 303 303 299 296 290 288 284 283 280 280 278 279 279 281 284 283 283 285 288 288 289 289 288 287 288 287 286 285 285 285 284 283 283 282 282 282
288 294 298 301 301 300 302 302 300 296 295 292 287 285 282 280 280 278 279 281 285 288 288 289 288 289 292 293 293 292 289 289 289 288 287 286 285 284 284 283 283 283 283
285 291 296 298 300 298 300 299 299 296 295 295 288 286 287 285 283 280 282 284 288 290 292 294 293 294 295 296 295 294 293 291 290 290 289 287 286 285 285 284 283 283 283
282 287 291 293 295 295 295 295 293 296 294 296 295 295 295 294 292 287 288 288 291 297 298 298 297 297 297 297 296 294 293 292 291 290 290 289 287 287 286 285 285 284 284
277 282 286 290 292 292 292 289 288 291 294 295 297 303 302 299 297 293 292 294 297 300 301 300 299 299 299 298 297 295 294 293 292 291 291 290 289 287 286 286 286 285 284
274 279 282 286 288 288 288 286 288 291 295 299 302 306 305 304 301 298 296 298 299 300 302 302 302 301 300 298 297 296 295 294 293 293 292 291 290 289 288 288 287 286 285
274 279 282 285 286 286 287 286 287 291 295 303 308 308 308 307 304 301 301 301 301 302 304 304 303 302 301 299 298 296 296 295 294 293 293 292 291 290 290 289 288 287 287
275 278 281 283 285 285 286 285 286 290 298 305 310 307 304 304 303 303 303 303 305 304 304 304 302 301 300 299 297 296 296 295 295 294 294 292 291 290 290 290 289 288 287
Height
5888 5888 5888 5888 5888 5889 5889 5889 5889 5890 5890 5891 5892 5892 5893 5893 5893 5894 5895 5897 5897 5898 5899 5899 5899 5900 5900 5901 5901 5901 5901 5901 5901 5901 5901 5901 5902 5902 5902 5903 5903 5903 5903
5887 5887 5887 5887 5887 5887 5887 5887 5887 5888 5888 5889 5889 5890 5891 5891 5892 5892 5893 5894 5895 5896 5896 5897 5898 5898 5898 5899 5899 5899 5899 5899 5899 5899 5898 5898 5899 5899 5899 5900 5900 5900 5900
5887 5886 5886 5886 5886 5886 5885 5885 5885 5886 5886 5887 5887 5888 5889 5890 5890 5891 5891 5892 5893 5893 5894 5895 5895 5896 5896 5896 5897 5897 5897 5897 5897 5896 5896 5896 5896 5896 5896 5896 5896 5896 5896
5886 5886 5886 5885 5885 5885 5884 5884 5884 5884 5885 5885 5886 5886 5887 5888 5888 5889 5889 5890 5891 5891 5892 5892 5893 5893 5894 5894 5894 5894 5894 5894 5894 5893 5893 5893 5893 5892 5893 5893 5893 5892 5892
5886 5886 5885 5885 5885 5885 5884 5884 5884 5884 5884 5884 5885 5885 5885 5886 5886 5887 5887 5888 5888 5889 5889 5890 5890 5890 5891 5891 5892 5892 5891 5891 5890 5890 5890 5890 5889 5889 5889 5889 5889 5889 5888
5886 5886 5885 5885 5885 5884 5884 5883 5883 5883 5883 5883 5884 5884 5884 5884 5885 5885 5885 5886 5886 5887 5887 5887 5887 5888 5888 5889 5889 5889 5888 5888 5887 5887 5887 5886 5886 5886 5885 5885 5885 5885 5885
5886 5886 5886 5885 5884 5884 5883 5883 5883 5883 5882 5882 5882 5882 5883 5883 5883 5883 5883 5884 5884 5884 5884 5884 5884 5885 5885 5885 5886 5886 5885 5885 5884 5884 5883 5883 5883 5882 5882 5882 5882 5881 5881
5887 5886 5886 5885 5884 5883 5883 5883 5882 5882 5882 5881 5881 5881 5881 5881 5881 5881 5881 5882 5882 5882 5882 5882 5881 5882 5882 5882 5883 5883 5882 5881 5881 5880 5880 5879 5879 5879 5879 5878 5878 5878 5878
5887 5886 5886 5885 5884 5883 5882 5882 5881 5881 5881 5881 5880 5880 5880 5880 5879 5879 5879 5879 5879 5879 5879 5879 5879 5879 5879 5879 5879 5879 5879 5878 5877 5877 5877 5876 5876 5875 5875 5875 5875 5875 5875
5887 5886 5885 5884 5884 5883 5882 5881 5881 5880 5880 5879 5879 5879 5878 5878 5878 5878 5877 5877 5877 5876 5876 5876 5876 5876 5876 5876 5876 5875 5875 5874 5874 5874 5873 5873 5872 5872 5871 5871 5871 5871 5871
5887 5886 5885 5884 5883 5882 5882 5881 5880 5879 5879 5878 5878 5878 5877 5877 5876 5876 5875 5875 5874 5874 5873 5873 5873 5873 5873 5872 5872 5872 5871 5871 5870 5870 5869 5869 5868 5868 5867 5867 5867 5867 5866
5886 5885 5884 5883 5883 5882 5881 5880 5879 5878 5878 5877 5877 5876 5876 5875 5874 5874 5873 5873 5872 5871 5871 5870 5870 5869 5869 5869 5868 5868 5867 5867 5866 5866 5865 5865 5864 5864 5863 5863 5862 5862 5862
5885 5885 5884 5883 5882 5882 5881 5880 5879 5878 5877 5876 5875 5874 5873 5873 5872 5871 5871 5870 5869 5869 5868 5867 5866 5866 5865 5865 5864 5863 5863 5862 5862 5861 5861 5860 5860 5859 5858 5858 5857 5857 5856
5884 5884 5883 5883 5882 5881 5880 5879 5877 5876 5875 5874 5873 5872 5871 5870 5869 5869 5868 5867 5866 5865 5865 5864 5863 5862 5861 5860 5860 5859 5858 5857 5857 5856 5855 5855 5854 5854 5853 5852 5851 5850 5850
5883 5882 5882 5881 5880 5879 5878 5877 5876 5874 5873 5871 5870 5869 5868 5867 5866 5866 5865 5864 5863 5862 5861 5860 5858 5857 5856 5855 5854 5853 5853 5852 5851 5850 5849 5848 5848 5847 5846 5845 5844 5843 5842
5881 5880 5880 5879 5878 5877 5876 5874 5873 5871 5870 5868 5867 5866 5865 5864 5863 5862 5861 5860 5859 5857 5856 5855 5854 5852 5851 5850 5849 5847 5846 5845 5844 5843 5842 5841 5840 5839 5838 5837 5836 5834 5833
5879 5878 5877 5876 5875 5874 5872 5870 5869 5867 5866 5864 5863 5861 5860 5859 5858 5856 5855 5854 5853 5852 5851 5849 5848 5846 5845 5844 5842 5841 5839 5838 5837 5835 5834 5833 5831 5830 5829 5827 5826 5825 5823
5876 5875 5874 5873 5871 5870 5868 5866 5864 5863 5861 5859 5857 5856 5854 5853 5851 5850 5849 5848 5847 5845 5844 5843 5841 5840 5838 5837 5835 5833 5832 5830 5829 5827 5825 5824 5822 5820 5818 5816 5815 5813 5812
5873 5872 5871 5869 5867 5865 5863 5861 5859 5857 5855 5852 5850 5849 5847 5845 5844 5843 5842 5841 5839 5838 5837 5836 5834 5833 5831 5829 5828 5825 5824 5822 5820 5818 5816 5814 5812 5810 5807 5805 5803 5801 5800
5869 5868 5867 5865 5863 5860 5858 5855 5852 5849 5847 5845 5843 5842 5840 5838 5836 5835 5834 5833 5832 5831 5829 5828 5827 5825 5824 5822 5820 5817 5815 5813 5810 5808 5806 5803 5801 5798 5796 5794 5791 5789 5787
5864 5864 5862 5860 5857 5855 5852 5848 5845 5841 5839 5838 5835 5833 5832 5830 5828 5827 5826 5825 5824 5823 5822 5820 5819 5817 5816 5814 5811 5808 5805 5803 5801 5798 5795 5792 5789 5787 5784 5781 5778 5776 5773
5858 5857 5856 5854 5852 5849 5846 5843 5839 5835 5832 5829 5826 5824 5824 5823 5821 5819 5819 5818 5816 5815 5813 5812 5810 5808 5807 5805 5802 5799 5796 5794 5791 5787 5784 5781 5777 5774 5771 5768 5764 5762 5759
5851 5851 5849 5848 5845 5842 5839 5836 5832 5828 5824 5822 5820 5818 5818 5817 5815 5813 5811 5810 5809 5808 5806 5804 5801 5799 5797 5795 5792 5789 5786 5783 5780 5777 5773 5768 5764 5761 5757 5753 5750 5746 5743
5844 5843 5842 5841 5838 5836 5832 5828 5824 5820 5816 5815 5812 5812 5811 5809 5808 5806 5804 5803 5801 5799 5797 5795 5792 5789 5787 5784 5781 5777 5774 5771 5768 5765 5762 5756 5751 5747 5742 5737 5733 5729 5725
5837 5836 5834 5833 5831 5828 5824 5821 5818 5814 5810 5808 5806 5804 5804 5803 5801 5799 5797 5795 5793 5790 5788 5785 5782 5779 5776 5772 5769 5765 5762 5758 5754 5751 5748 5744 5738 5731 5726 5721 5715 5710 5706
5829 5828 5827 5825 5823 5820 5817 5814 5810 5806 5802 5801 5799 5798 5796 5796 5794 5792 5789 5786 5784 5781 5778 5775 5771 5768 5764 5760 5756 5752 5748 5744 5739 5735 5732 5728 5724 5718 5710 5704 5697 5691 5686